Weather in Rabat

Morocco     34°01′00″N   6°50′25″W
temp.,
°C
wind,
m/s
gust,
m/s
humid.,
%
clouds,
%
prec.,
mm/h
press.,
hPa
HPBL,
m
20 september, mon
mon2001:00+21w22741 0.0 1017221
04:00+20wsw22770 0.0 1017162
07:00+20sw22800 0.0 1017168
10:00+23wsw33630 0.0 1018490
13:00+25wnw43530 0.0 1017618
16:00+25nw44515 0.0 1015557
19:00+23wnw34675 0.0 1016408
22:00+22wnw348221 0.0 1017178
21 september, tue
tue2101:00+21ne01851 0.0 1016142
04:00+20sse11850 0.0 101552
07:00+19ese118826 0.0 101447
10:00+23wnw11750 0.0 1014399
13:00+25nw54660 0.0 1014699
16:00+24nw54630 0.0 1012608
19:00+23wnw45750 0.0 1012480
22:00+22wsw34860 0.0 1013173
22 september, wed
wed2201:00+21sw35830 0.0 1012194
04:00+20s33810 0.0 1011119
07:00+20ssw458125 0.0 1012145
10:00+23sw45690 0.0 1013578
13:00+27wnw55520 0.0 10121122
16:00+25wnw55670 0.0 1011541
19:00+23nw33770 0.0 1011399
22:00+21nw118627 0.0 1013102
23 september, thu
thu2301:00+21wsw228758 0.0 1012123
04:00+21wsw2292100 0.0 101281
07:00+21n119177 0.1 1012163
10:00+23w227433 0.0 1013639
13:00+25wnw536099 0.0 1013859
16:00+24wnw5561100 0.0 1012704
19:00+23wnw3370100 0.0 1013386
22:00+21nw117938 0.0 101492
24 september, fri
fri2401:00+20e118384 0.0 101438
04:00+19ese11865 0.0 101359
07:00+19se11855 0.0 101347
10:00+23nw11594 0.0 1014425
13:00+25nw53517 0.0 1014877
16:00+25nw544698 0.0 1013723
19:00+22nnw4560100 0.0 1014385
22:00+21ne12730 0.0 1015133